| time (UTC) | temp F | wind direction | speed MPH | gust MPH | rain 1hr in | rain 24hr in | rain mn in | humidity % | barometer mb |
| 20260903121622 | 48 | 78 | 2.0 | 3.0 | 0.00 | 0.00 | 0.00 | 57 | 1013.7 |
| 20260903120613 | 48 | 78 | 1.0 | 3.0 | 0.00 | 0.00 | 0.00 | 56 | 1013.5 |
| 20260903115612 | 48 | 78 | 2.0 | 4.0 | 0.00 | 0.00 | 0.00 | 54 | 1013.3 |
| 20260903114623 | 49 | 78 | 3.0 | 3.0 | 0.00 | 0.00 | 0.00 | 53 | 1013.2 |
| 20260903113616 | 50 | 78 | 0.0 | 3.0 | 0.00 | 0.00 | 0.00 | 51 | 1013.3 |
| 20260903112627 | 51 | 78 | 1.0 | 3.0 | 0.00 | 0.00 | 0.00 | 50 | 1013.3 |
| 20260903111638 | 52 | 77 | 1.0 | 3.0 | 0.00 | 0.00 | 0.00 | 48 | 1013.4 |
| 20260903110627 | 53 | 77 | 1.0 | 2.0 | 0.00 | 0.00 | 0.00 | 49 | 1013.2 |
| 20260903105623 | 54 | 78 | 0.0 | 3.0 | 0.00 | 0.00 | 0.00 | 44 | 1013.0 |
| 20260903104612 | 53 | 78 | 2.0 | 4.0 | 0.00 | 0.00 | 0.00 | 44 | 1012.9 |
| 20260903103623 | 54 | 78 | 0.0 | 5.0 | 0.00 | 0.00 | 0.00 | 45 | 1012.8 |
| 20260903102619 | 55 | 26 | 0.0 | 4.0 | 0.00 | 0.00 | 0.00 | 44 | 1012.8 |
| 20260903101630 | 55 | 129 | 0.0 | 6.0 | 0.00 | 0.00 | 0.00 | 43 | 1012.7 |
| 20260903100621 | 54 | 114 | 3.0 | 7.0 | 0.00 | 0.00 | 0.00 | 44 | 1012.8 |
| 20260903095643 | 52 | 53 | 3.0 | 3.0 | 0.00 | 0.00 | 0.00 | 48 | 1012.9 |
| 20260903094617 | 53 | 53 | 3.0 | 3.0 | 0.00 | 0.00 | 0.00 | 50 | 1013.0 |
| 20260903093628 | 53 | 53 | 2.0 | 3.0 | 0.00 | 0.00 | 0.00 | 50 | 1013.0 |
| 20260903092620 | 54 | 53 | 3.0 | 4.0 | 0.00 | 0.00 | 0.00 | 49 | 1012.8 |
| 20260903091631 | 56 | 48 | 1.0 | 3.0 | 0.00 | 0.00 | 0.00 | 47 | 1012.7 |
| 20260903090627 | 56 | 48 | 0.0 | 3.0 | 0.00 | 0.00 | 0.00 | 46 | 1012.5 |
| 20260903085628 | 57 | 47 | 3.0 | 6.0 | 0.00 | 0.00 | 0.00 | 46 | 1012.4 |
| 20260903084640 | 58 | 265 | 2.0 | 3.0 | 0.00 | 0.00 | 0.00 | 47 | 1012.4 |
| 20260903083630 | 59 | 273 | 3.0 | 6.0 | 0.00 | 0.00 | 0.00 | 46 | 1012.5 |
| 20260903082625 | 59 | 268 | 4.0 | 7.0 | 0.00 | 0.00 | 0.00 | 44 | 1012.4 |
| 20260903081615 | 59 | 153 | 3.0 | 5.0 | 0.00 | 0.00 | 0.00 | 41 | 1012.4 |
| 20260903080626 | 59 | 153 | 1.0 | 3.0 | 0.00 | 0.00 | 0.00 | 43 | 1012.4 |
| 20260903075627 | 59 | 153 | 1.0 | 2.0 | 0.00 | 0.00 | 0.00 | 43 | 1012.5 |
| 20260903074623 | 59 | 153 | 0.0 | 2.0 | 0.00 | 0.00 | 0.00 | 44 | 1012.4 |
| 20260903073615 | 59 | 153 | 2.0 | 7.0 | 0.00 | 0.00 | 0.00 | 44 | 1012.3 |
| 20260903072624 | 59 | 213 | 2.0 | 4.0 | 0.00 | 0.00 | 0.00 | 41 | 1012.4 |
| 20260903071613 | 59 | 123 | 2.0 | 3.0 | 0.00 | 0.00 | 0.00 | 41 | 1012.3 |
| 20260903070629 | 59 | 123 | 2.0 | 3.0 | 0.00 | 0.00 | 0.00 | 40 | 1012.2 |
| 20260903065650 | 58 | 121 | 2.0 | 3.0 | 0.00 | 0.00 | 0.00 | 40 | 1012.2 |
| 20260903064620 | 58 | 121 | 2.0 | 3.0 | 0.00 | 0.00 | 0.00 | 41 | 1012.2 |
| 20260903063632 | 58 | 121 | 3.0 | 4.0 | 0.00 | 0.00 | 0.00 | 42 | 1012.4 |
| 20260903062628 | 58 | 115 | 1.0 | 4.0 | 0.00 | 0.00 | 0.00 | 41 | 1012.2 |
| 20260903061637 | 59 | 100 | 2.0 | 3.0 | 0.00 | 0.00 | 0.00 | 40 | 1012.1 |
| 20260903060614 | 61 | 100 | 2.0 | 4.0 | 0.00 | 0.00 | 0.00 | 36 | 1011.9 |
| 20260903055616 | 61 | 84 | 0.0 | 5.0 | 0.00 | 0.00 | 0.00 | 33 | 1011.8 |
| 20260903054627 | 62 | 36 | 2.0 | 3.0 | 0.00 | 0.00 | 0.00 | 34 | 1011.7 |
| 20260903053622 | 62 | 34 | 2.0 | 4.0 | 0.00 | 0.00 | 0.00 | 33 | 1011.7 |
| 20260903052652 | 62 | 12 | 3.0 | 5.0 | 0.00 | 0.00 | 0.00 | 33 | 1011.8 |
| 20260903051621 | 63 | 22 | 2.0 | 8.0 | 0.00 | 0.00 | 0.00 | 33 | 1012.0 |
| 20260903050617 | 64 | 12 | 4.0 | 10.0 | 0.00 | 0.00 | 0.00 | 33 | 1012.2 |
| 20260903045617 | 64 | 5 | 5.0 | 12.0 | 0.00 | 0.03 | 0.00 | 31 | 1012.1 |
| 20260903044649 | 64 | 5 | 3.0 | 11.0 | 0.00 | 0.03 | 0.00 | 32 | 1012.2 |
| 20260903043618 | 65 | 15 | 5.0 | 10.0 | 0.00 | 0.03 | 0.00 | 32 | 1012.2 |
| 20260903042628 | 66 | 17 | 4.0 | 9.0 | 0.00 | 0.03 | 0.00 | 30 | 1012.1 |
| 20260903041643 | 67 | 355 | 3.0 | 9.0 | 0.00 | 0.03 | 0.00 | 28 | 1011.9 |
| 20260903040613 | 68 | 19 | 3.0 | 10.0 | 0.00 | 0.03 | 0.00 | 27 | 1011.9 |
| 20260903035631 | 68 | 10 | 6.0 | 13.0 | 0.00 | 0.03 | 0.00 | 27 | 1011.8 |
| 20260903034622 | 68 | 17 | 6.0 | 10.0 | 0.00 | 0.03 | 0.00 | 27 | 1011.7 |
| 20260903033616 | 68 | 329 | 4.0 | 9.0 | 0.00 | 0.03 | 0.00 | 26 | 1011.4 |
| 20260903032626 | 68 | 22 | 3.0 | 6.0 | 0.00 | 0.03 | 0.00 | 26 | 1011.4 |
| 20260903031618 | 67 | 14 | 3.0 | 6.0 | 0.00 | 0.03 | 0.00 | 27 | 1011.2 |
| 20260903030629 | 68 | 10 | 2.0 | 5.0 | 0.00 | 0.03 | 0.00 | 26 | 1011.1 |
| 20260903025653 | 69 | 61 | 2.0 | 5.0 | 0.00 | 0.03 | 0.00 | 26 | 1011.1 |
| 20260903024621 | 70 | 19 | 0.0 | 12.0 | 0.00 | 0.03 | 0.00 | 21 | 1011.1 |
| 20260903023651 | 71 | 95 | 6.0 | 10.0 | 0.00 | 0.03 | 0.00 | 19 | 1010.7 |
| 20260903022619 | 71 | 91 | 8.0 | 10.0 | 0.00 | 0.03 | 0.00 | 19 | 1010.6 |
| 20260903021631 | 70 | 85 | 7.0 | 9.0 | 0.00 | 0.03 | 0.00 | 19 | 1010.6 |
| 20260903020621 | 70 | 105 | 7.0 | 8.0 | 0.00 | 0.03 | 0.00 | 20 | 1010.5 |
| 20260903015622 | 70 | 99 | 4.0 | 7.0 | 0.00 | 0.03 | 0.00 | 21 | 1010.6 |
| 20260903014631 | 71 | 103 | 2.0 | 6.0 | 0.00 | 0.03 | 0.00 | 23 | 1010.6 |
| 20260903013625 | 72 | 130 | 3.0 | 4.0 | 0.00 | 0.03 | 0.00 | 23 | 1010.6 |
| 20260903012653 | 73 | 240 | 3.0 | 4.0 | 0.00 | 0.03 | 0.00 | 24 | 1010.7 |
| 20260903011622 | 74 | 248 | 3.0 | 4.0 | 0.00 | 0.03 | 0.00 | 26 | 1010.8 |
| 20260903010614 | 74 | 249 | 1.0 | 3.0 | 0.00 | 0.03 | 0.00 | 22 | 1011.0 |
| 20260903005616 | 75 | 249 | 1.0 | 2.0 | 0.00 | 0.03 | 0.00 | 24 | 1011.1 |
| 20260903004627 | 75 | 249 | 1.0 | 2.0 | 0.00 | 0.03 | 0.00 | 24 | 1011.2 |
| 20260903003619 | 76 | 249 | 1.0 | 4.0 | 0.00 | 0.03 | 0.00 | 23 | 1011.2 |
| 20260903002629 | 76 | 257 | 4.0 | 7.0 | 0.00 | 0.03 | 0.00 | 19 | 1011.2 |
| 20260903001623 | 77 | 250 | 3.0 | 9.0 | 0.00 | 0.03 | 0.00 | 19 | 1011.2 |
| 20260903000634 | 77 | 253 | 5.0 | 9.0 | 0.00 | 0.03 | 0.00 | 20 | 1011.1 |
| 20260902235615 | 78 | 242 | 5.0 | 9.0 | 0.00 | 0.03 | 0.00 | 21 | 1011.1 |
| 20260902234624 | 79 | 226 | 7.0 | 12.0 | 0.00 | 0.03 | 0.00 | 20 | 1011.2 |
| 20260902233616 | 80 | 265 | 9.0 | 12.0 | 0.00 | 0.03 | 0.00 | 18 | 1011.2 |
| 20260902232628 | 79 | 248 | 6.0 | 12.0 | 0.00 | 0.03 | 0.00 | 19 | 1011.2 |
| 20260902231617 | 80 | 233 | 6.0 | 12.0 | 0.00 | 0.03 | 0.00 | 19 | 1011.2 |
| 20260902230627 | 80 | 261 | 10.0 | 15.0 | 0.00 | 0.03 | 0.00 | 18 | 1011.2 |
| 20260902225632 | 80 | 244 | 8.0 | 15.0 | 0.00 | 0.03 | 0.00 | 21 | 1011.1 |
| 20260902224620 | 79 | 223 | 8.0 | 14.0 | 0.00 | 0.03 | 0.00 | 21 | 1011.1 |
| 20260902223630 | 80 | 233 | 8.0 | 15.0 | 0.00 | 0.03 | 0.00 | 22 | 1011.1 |
| 20260902222619 | 80 | 252 | 9.0 | 16.0 | 0.00 | 0.03 | 0.00 | 22 | 1011.1 |
| 20260902221613 | 81 | 249 | 9.0 | 17.0 | 0.00 | 0.03 | 0.00 | 21 | 1011.2 |
| 20260902220621 | 81 | 229 | 10.0 | 13.0 | 0.00 | 0.03 | 0.00 | 21 | 1011.4 |
| 20260902215620 | 80 | 220 | 5.0 | 17.0 | 0.00 | 0.03 | 0.00 | 24 | 1011.3 |
| 20260902214630 | 80 | 225 | 8.0 | 22.0 | 0.00 | 0.03 | 0.00 | 25 | 1011.4 |
| 20260902213640 | 80 | 257 | 9.0 | 16.0 | 0.00 | 0.03 | 0.00 | 24 | 1011.2 |
| 20260902212613 | 80 | 244 | 11.0 | 22.0 | 0.00 | 0.03 | 0.00 | 23 | 1011.3 |
| 20260902211622 | 80 | 267 | 11.0 | 20.0 | 0.00 | 0.03 | 0.00 | 23 | 1011.3 |
| 20260902210632 | 81 | 212 | 8.0 | 21.0 | 0.00 | 0.03 | 0.00 | 24 | 1011.4 |
| 20260902205615 | 81 | 242 | 13.0 | 18.0 | 0.00 | 0.03 | 0.00 | 23 | 1011.4 |
| 20260902200624 | 80 | 223 | 11.0 | 19.0 | 0.00 | 0.03 | 0.00 | 26 | 1011.7 |
| 20260902195623 | 80 | 225 | 10.0 | 23.0 | 0.00 | 0.03 | 0.00 | 26 | 1011.8 |
| 20260902194633 | 80 | 244 | 11.0 | 18.0 | 0.00 | 0.03 | 0.00 | 26 | 1011.9 |
| 20260902193620 | 79 | 194 | 8.0 | 17.0 | 0.00 | 0.03 | 0.00 | 27 | 1012.0 |
| 20260902192636 | 78 | 219 | 12.0 | 21.0 | 0.00 | 0.03 | 0.00 | 28 | 1012.1 |
| 20260902191625 | 79 | 218 | 9.0 | 19.0 | 0.00 | 0.03 | 0.00 | 27 | 1012.1 |
| 20260902190634 | 78 | 234 | 12.0 | 22.0 | 0.00 | 0.03 | 0.00 | 26 | 1012.3 |
| 20260902185633 | 79 | 215 | 11.0 | 18.0 | 0.00 | 0.03 | 0.00 | 26 | 1012.3 |
| 20260902184619 | 79 | 235 | 12.0 | 21.0 | 0.00 | 0.03 | 0.00 | 25 | 1012.4 |
| 20260902183623 | 79 | 236 | 13.0 | 19.0 | 0.00 | 0.03 | 0.00 | 27 | 1012.5 |
| 20260902182613 | 78 | 241 | 11.0 | 24.0 | 0.00 | 0.03 | 0.00 | 29 | 1012.5 |
| 20260902181621 | 78 | 261 | 11.0 | 18.0 | 0.00 | 0.03 | 0.00 | 28 | 1012.7 |
| 20260902180615 | 78 | 215 | 11.0 | 18.0 | 0.00 | 0.03 | 0.00 | 28 | 1012.5 |
| 20260902175614 | 77 | 211 | 9.0 | 23.0 | 0.00 | 0.03 | 0.00 | 29 | 1012.6 |
| 20260902174629 | 76 | 227 | 11.0 | 18.0 | 0.00 | 0.03 | 0.00 | 30 | 1012.7 |
| 20260902173619 | 76 | 226 | 7.0 | 15.0 | 0.00 | 0.03 | 0.00 | 33 | 1012.8 |
| 20260902172649 | 76 | 252 | 9.0 | 17.0 | 0.00 | 0.03 | 0.00 | 34 | 1012.9 |
| 20260902171639 | 75 | 251 | 10.0 | 16.0 | 0.00 | 0.03 | 0.00 | 36 | 1012.9 |
| 20260902170615 | 75 | 226 | 8.0 | 16.0 | 0.00 | 0.03 | 0.00 | 35 | 1012.7 |
| 20260902165617 | 76 | 223 | 11.0 | 19.0 | 0.00 | 0.03 | 0.00 | 33 | 1012.7 |
| 20260902164649 | 77 | 250 | 9.0 | 22.0 | 0.00 | 0.03 | 0.00 | 33 | 1012.7 |
| 20260902163619 | 76 | 209 | 11.0 | 21.0 | 0.00 | 0.03 | 0.00 | 32 | 1012.7 |
| 20260902162613 | 76 | 211 | 14.0 | 23.0 | 0.00 | 0.03 | 0.00 | 35 | 1012.5 |
| 20260902161642 | 75 | 196 | 10.0 | 16.0 | 0.00 | 0.03 | 0.00 | 38 | 1012.6 |
| 20260902160612 | 74 | 221 | 10.0 | 21.0 | 0.00 | 0.03 | 0.00 | 40 | 1012.6 |
| 20260902155613 | 73 | 221 | 10.0 | 18.0 | 0.00 | 0.03 | 0.00 | 45 | 1012.6 |
| 20260902154646 | 72 | 201 | 12.0 | 18.0 | 0.00 | 0.03 | 0.00 | 46 | 1012.3 |
| 20260902153619 | 67 | 217 | 7.0 | 12.0 | 0.00 | 0.03 | 0.00 | 60 | 1012.2 |
| 20260902152628 | 64 | 251 | 2.0 | 3.0 | 0.00 | 0.03 | 0.00 | 74 | 1012.3 |
| 20260902151614 | 62 | 243 | 1.0 | 3.0 | 0.00 | 0.03 | 0.00 | 74 | 1012.3 |
| 20260902150623 | 60 | 243 | 0.0 | 2.0 | 0.00 | 0.03 | 0.00 | 79 | 1012.4 |
| 20260902145626 | 59 | 243 | 2.0 | 4.0 | 0.00 | 0.03 | 0.00 | 80 | 1012.2 |
| 20260902144636 | 59 | 298 | 0.0 | 2.0 | 0.00 | 0.03 | 0.00 | 80 | 1012.1 |
| 20260902143626 | 58 | 300 | 1.0 | 4.0 | 0.00 | 0.03 | 0.00 | 80 | 1012.0 |
| 20260902142616 | 58 | 92 | 1.0 | 4.0 | 0.00 | 0.03 | 0.00 | 81 | 1011.8 |
| 20260902141626 | 57 | 88 | 0.0 | 0.0 | 0.00 | 0.03 | 0.00 | 81 | 1011.7 |
| 20260902140625 | 56 | 88 | 0.0 | 2.0 | 0.00 | 0.03 | 0.00 | 82 | 1011.7 |
| 20260902135627 | 55 | 88 | 1.0 | 4.0 | 0.00 | 0.03 | 0.00 | 83 | 1011.7 |
| 20260902134616 | 55 | 71 | 2.0 | 4.0 | 0.00 | 0.03 | 0.00 | 83 | 1011.6 |
| 20260902133629 | 54 | 72 | 1.0 | 3.0 | 0.00 | 0.03 | 0.00 | 84 | 1011.6 |
| 20260902132631 | 54 | 74 | 0.0 | 2.0 | 0.00 | 0.03 | 0.00 | 84 | 1011.6 |
| 20260902131627 | 54 | 73 | 3.0 | 4.0 | 0.00 | 0.03 | 0.00 | 83 | 1011.4 |
| 20260902130617 | 55 | 272 | 1.0 | 6.0 | 0.00 | 0.03 | 0.00 | 84 | 1011.6 |
| 20260902125621 | 54 | 87 | 2.0 | 8.0 | 0.00 | 0.03 | 0.00 | 84 | 1011.4 |
| 20260902124631 | 54 | 360 | 1.0 | 5.0 | 0.00 | 0.03 | 0.00 | 86 | 1011.4 |
| 20260902123632 | 54 | 86 | 0.0 | 4.0 | 0.00 | 0.03 | 0.00 | 86 | 1011.4 |
| 20260902122634 | 54 | 56 | 2.0 | 4.0 | 0.00 | 0.03 | 0.00 | 85 | 1011.3 |